[[{"header":{"parameterUnit":"m.s-1","parameterCategory":1,"la1":30.2991,"la2":30.254,"lo1":-89.0895,"lo2":-89.0444,"dy":0.0017,"dx":0.0017,"nx":28,"ny":28,"refTime":"2024-06-06T09:00:00:Z","depth":0,"parameterNumber":2,"parameterNumberName":"U-component_of_WINDS"},"data":[0,0,0,0,0,0,0,0,0,0,0,0,0,0,0,0,0,0,0,0,0,0,0,0,0,0,0,0,0,0,0,0,0,0,0,0,0,0,0,0,0,0,0,0,0,0,0,0,0,0,0,0,0,0,0,0,0,0,2.6488,2.6489,0,2.6494,2.6494,2.6494,2.6414,2.6412,2.641,2.6408,2.6414,2.6416,2.6418,0,0,0,0,0,0,0,0,0,0,0,0,0,2.6407,2.6409,2.6488,2.6489,2.6489,2.6494,2.6494,2.6494,2.6414,2.6412,2.6409,2.6407,2.6413,2.6415,2.6418,0,0,0,0,0,0,0,0,0,0,0,0,0,2.6431,2.641,2.6488,2.6449,2.6446,2.6494,2.6494,2.6494,2.6415,2.6412,2.6408,2.6405,2.6412,2.6415,2.6418,2.6504,0,0,2.6428,2.643,0,0,0,0,0,0,0,0,2.6429,2.6434,2.6455,2.6452,2.6448,2.645,2.6467,2.6497,2.6416,2.6427,2.6408,2.6404,2.6428,2.643,2.6438,2.6504,2.6504,2.6429,2.6431,2.6432,2.6433,0,0,0,0,0,0,0,2.6428,2.6433,2.6491,2.6456,2.6451,2.6431,2.6431,2.6473,2.6446,2.6426,2.642,2.6421,2.6426,2.6435,2.6438,2.6504,2.6429,2.6431,2.6433,2.6435,2.6636,2.6639,0,0,0,0,0,0,2.6432,2.6432,2.649,2.6491,2.6431,2.6435,2.6435,2.6453,2.6445,2.6441,2.6424,2.6418,2.6431,2.6434,2.6438,2.6534,2.6432,2.6435,2.6437,2.6633,2.6637,2.6641,0,0,0,0,0,0,2.643,2.6438,2.649,2.646,2.6465,2.644,2.6461,2.6455,2.6464,2.6444,2.6439,2.6439,2.6429,2.6433,2.6487,2.6533,2.6437,2.644,2.6629,2.6634,2.6639,2.6729,0,0,0,0,0,0,2.6428,2.6438,2.6471,2.6461,2.6467,2.654,2.6464,2.6457,2.647,2.6461,2.6456,2.6452,2.6427,2.6482,2.649,2.6536,2.6442,2.6625,2.6631,2.6637,2.6722,2.6736,2.6749,0,0,0,0,0,2.6426,2.6497,2.6473,2.648,2.6508,2.6543,2.6546,2.6515,2.6474,2.6506,2.6492,2.6453,2.6527,2.6489,2.6497,2.6544,2.6621,2.6629,2.6637,2.6715,2.6733,2.6749,0,0,0,0,0,0,2.6513,2.6495,2.6468,2.6538,2.6543,2.6529,2.6569,2.6536,2.6552,2.6543,2.6504,2.6503,2.6563,2.6559,2.6517,2.6624,2.6567,2.6577,2.6624,2.6641,2.6654,2.6653,2.6445,0,0,0,0,0,2.6541,2.6571,2.6554,2.6617,2.6621,2.6595,2.6609,2.6584,2.6587,2.6589,2.658,2.6584,2.6608,2.6625,2.6646,2.6721,2.6717,2.6758,2.6771,2.6783,2.6791,2.6826,2.6843,2.6666,2.6666,2.6665,0,0,2.6598,2.6591,2.6613,2.6634,2.6635,2.6666,2.6597,2.6634,2.6656,2.6595,2.6643,2.6637,2.6639,2.6703,2.6731,2.6702,2.6839,2.6792,2.6802,2.6803,2.6836,2.6853,2.6868,2.6671,2.667,2.6669,0,0,2.6716,2.6716,2.6767,2.6768,2.6769,2.6751,2.6764,2.6755,2.6748,2.6797,2.675,2.6776,2.6819,2.6821,2.6828,2.6945,2.6908,2.6954,2.7024,2.706,2.7073,2.7086,2.7124,2.7139,2.6962,2.6962,2.6962,0,2.6787,2.6832,2.6798,2.6836,2.6846,2.6791,2.684,2.6844,2.6852,2.686,2.6827,2.6877,2.6875,2.6937,2.6965,2.6974,2.6985,2.6953,2.7074,2.7086,2.7097,2.7133,2.7148,2.6968,2.6967,2.6966,2.6966,0,2.6917,2.6949,2.699,2.6997,2.7012,2.7057,2.7027,2.7046,2.702,2.7005,2.7053,2.7049,2.7066,2.708,2.7055,2.7137,2.7119,2.7081,2.7022,2.712,2.7153,2.7167,2.6975,2.6973,2.6972,2.697,0,0,2.7091,2.7077,2.7092,2.7093,2.7089,2.7113,2.7154,2.7171,2.7186,2.7193,2.7225,2.7262,2.7226,2.7234,2.7209,2.7241,2.7329,2.7198,2.7198,2.722,2.7415,2.7441,2.7458,2.7305,2.7308,2.731,2.7414,0,2.7204,2.7272,2.7241,2.7312,2.7339,2.7286,2.7322,2.7323,2.731,2.733,2.7316,2.7341,2.7294,2.7297,2.7327,2.7312,2.7367,2.7305,2.7332,2.7334,2.733,2.7476,2.7504,2.7602,2.7427,2.7429,2.7431,0,2.7344,2.7355,2.7429,2.7416,2.7426,2.7459,2.7469,2.7491,2.749,2.7478,2.7486,2.7453,2.7491,2.7434,2.7485,2.7443,2.7453,2.7447,2.745,2.7449,2.7386,2.7475,2.7633,2.7647,2.7451,2.745,2.7448,0,2.7459,2.7492,2.7539,2.7543,2.7531,2.7554,2.755,2.7546,2.7557,2.7566,2.7572,2.7587,2.7595,2.7606,2.7578,2.754,2.7631,2.7573,2.762,2.7621,2.764,2.7638,2.7798,2.7652,2.7652,2.7651,2.7651,0,2.7586,2.7632,2.759,2.7619,2.7668,2.7632,2.7682,2.7672,2.7669,2.7694,2.7651,2.7675,2.7638,2.7658,2.7637,2.768,2.7684,2.7674,2.7667,2.7676,2.7677,2.768,2.7671,2.7655,2.7654,2.7653,2.7653,0,2.7721,2.7696,2.7743,2.7727,2.7724,2.776,2.7746,2.7772,2.7755,2.7787,2.7793,2.7767,2.7789,2.7762,2.7782,2.7767,2.7825,2.781,2.7825,2.7819,2.7866,2.7861,2.8031,2.805,2.7895,2.7896,2.7897,0,2.7802,2.7836,2.7823,2.7836,2.7834,2.7856,2.7866,2.7832,2.7844,2.7844,2.7869,2.7886,2.7898,2.7936,2.7918,2.7933,2.7915,2.7974,2.7917,2.7924,2.7912,2.7909,2.7911,2.7984,2.7986,2.7988,2.7989,0,2.7948,2.7932,2.7948,2.7959,2.7971,2.7978,2.7982,2.7996,2.7959,2.7975,2.7996,2.8005,2.8024,2.8041,2.8051,2.8046,2.8011,2.8007,2.8018,2.8026,2.8032,2.8026,2.7852,2.8003,2.8002,2.8001,2.8,2.7999,2.8056,2.8082,2.8075,2.8093,2.8092,2.8096,2.8118,2.8103,2.812,2.8131,2.811,2.8136,2.8132,2.8141,2.814,2.8159,2.8134,2.8151,2.8154,2.8158,2.8164,2.8032,2.8161,2.8161,2.816,2.816,2.816,0,2.8196,2.8188,2.8205,2.821,2.8224,2.819,2.8192,2.8205,2.8228,2.8227,2.8239,2.8262,2.8278,2.8262,2.8274,2.8293,2.8277,2.8297,2.8293,2.8292,2.8187,2.8175,2.8309,2.8309,2.8309,2.8309,2.8309,2.8309,2.827,2.831,2.8294,2.8333,2.8326,2.835,2.8353,2.8356,2.8354,2.8381,2.8394,2.8383,2.8375,2.8386,2.8399,2.8394,2.8399,2.8425,2.8413,2.8315,2.83,2.8286,2.8274,2.8427,2.8427,2.8516,2.8517,2.8517]},{"header":{"parameterUnit":"m.s-1","parameterCategory":1,"la1":30.2991,"la2":30.254,"lo1":-89.0895,"lo2":-89.0444,"dy":0.0017,"dx":0.0017,"nx":28,"ny":28,"refTime":"2024-06-06T09:00:00:Z","depth":0,"parameterNumber":3,"parameterNumberName":"V-component_of_WINDS"},"data":[0,0,0,0,0,0,0,0,0,0,0,0,0,0,0,0,0,0,0,0,0,0,0,0,0,0,0,0,0,0,0,0,0,0,0,0,0,0,0,0,0,0,0,0,0,0,0,0,0,0,0,0,0,0,0,0,0,0,3.7133,3.7135,0,3.7275,3.7276,3.7278,3.7258,3.7255,3.7253,3.7251,3.7389,3.7395,3.7401,0,0,0,0,0,0,0,0,0,0,0,0,0,3.6838,3.6844,3.7133,3.7135,3.7137,3.7274,3.7276,3.7278,3.7258,3.7255,3.7252,3.725,3.7387,3.7394,3.7401,0,0,0,0,0,0,0,0,0,0,0,0,0,3.6972,3.6846,3.7133,3.7144,3.7146,3.7274,3.7276,3.7279,3.7259,3.7255,3.7252,3.7248,3.7385,3.7394,3.7402,3.7527,0,0,3.7429,3.7433,0,0,0,0,0,0,0,0,3.6964,3.6982,3.714,3.7143,3.7146,3.7245,3.7223,3.7362,3.726,3.7216,3.7251,3.7247,3.7344,3.7356,3.739,3.7533,3.7539,3.743,3.7435,3.7439,3.7442,0,0,0,0,0,0,0,3.6955,3.6976,3.7189,3.7142,3.7146,3.7139,3.7154,3.7249,3.7297,3.7219,3.7218,3.7235,3.7345,3.7381,3.7393,3.7541,3.743,3.7438,3.7443,3.7446,3.7791,3.7795,0,0,0,0,0,0,3.6944,3.6969,3.7184,3.7193,3.7045,3.7147,3.7164,3.7217,3.7296,3.7305,3.7238,3.7234,3.7368,3.7383,3.7398,3.7547,3.7439,3.7447,3.7452,3.7787,3.7792,3.7796,0,0,0,0,0,0,3.6938,3.6963,3.7179,3.7081,3.7108,3.7156,3.7215,3.7221,3.7258,3.7311,3.7319,3.7268,3.7366,3.7385,3.7495,3.7552,3.7451,3.7459,3.7782,3.7788,3.7794,3.7848,0,0,0,0,0,0,3.6929,3.6961,3.7011,3.7082,3.7113,3.7276,3.7219,3.7227,3.7274,3.727,3.734,3.7349,3.7365,3.7482,3.7503,3.7562,3.7466,3.7778,3.7785,3.7792,3.7841,3.7855,3.7867,0,0,0,0,0,3.6919,3.702,3.7014,3.704,3.7177,3.7279,3.7297,3.7315,3.7279,3.7328,3.7361,3.7346,3.7542,3.7493,3.7517,3.7579,3.7774,3.7783,3.7791,3.7836,3.7852,3.7866,0,0,0,0,0,0,3.6953,3.7029,3.7023,3.7151,3.7209,3.7276,3.7339,3.7332,3.74,3.7393,3.741,3.7426,3.7537,3.7569,3.7513,3.7702,3.7653,3.7667,3.7678,3.7694,3.7707,3.7696,3.7473,0,0,0,0,0,3.6975,3.7055,3.7116,3.7223,3.7252,3.729,3.7336,3.7345,3.7405,3.7428,3.747,3.7527,3.7601,3.7649,3.772,3.7846,3.7859,3.79,3.7913,3.7923,3.7934,3.8001,3.8019,3.7825,3.7824,3.7824,0,0,3.7022,3.7074,3.7123,3.7231,3.7277,3.7356,3.7311,3.7397,3.7456,3.7441,3.7547,3.7579,3.7643,3.7761,3.7815,3.7791,3.7991,3.7934,3.7942,3.7948,3.8012,3.803,3.8046,3.783,3.7829,3.7828,0,0,3.7148,3.7196,3.7289,3.7336,3.7407,3.7431,3.7454,3.7521,3.7543,3.765,3.764,3.7708,3.7836,3.7881,3.7921,3.8062,3.805,3.8084,3.815,3.8215,3.823,3.8244,3.8293,3.831,3.8096,3.8096,3.8096,0,3.7197,3.7319,3.7337,3.7425,3.7472,3.7463,3.7556,3.76,3.7689,3.772,3.7693,3.7852,3.7895,3.8022,3.8056,3.8089,3.8113,3.8077,3.8227,3.8241,3.8254,3.83,3.8319,3.81,3.8099,3.8099,3.8099,0,3.7374,3.7458,3.7524,3.7613,3.7667,3.7756,3.7786,3.7838,3.7841,3.7868,3.7975,3.8026,3.8106,3.8137,3.8141,3.8264,3.8247,3.8223,3.8173,3.8276,3.832,3.8338,3.8105,3.8104,3.8103,3.8102,0,0,3.7527,3.7624,3.7647,3.7686,3.7763,3.7827,3.7914,3.7995,3.8038,3.8099,3.8171,3.8279,3.8257,3.8302,3.831,3.8367,3.8473,3.8336,3.8337,3.8359,3.861,3.8627,3.8647,3.8465,3.8469,3.8472,3.8604,0,3.7659,3.7817,3.7836,3.7975,3.8051,3.8043,3.8119,3.8172,3.8199,3.8265,3.8293,3.8369,3.8335,3.8361,3.8417,3.8448,3.8523,3.8439,3.8531,3.8534,3.8515,3.8671,3.869,3.8812,3.8621,3.8624,3.8626,0,3.7836,3.7903,3.8051,3.8115,3.8147,3.8216,3.829,3.8354,3.8413,3.8428,3.8478,3.8479,3.8566,3.8512,3.8631,3.8574,3.8612,3.8632,3.8637,3.8646,3.8586,3.8683,3.8852,3.887,3.8654,3.8652,3.865,0,3.793,3.8058,3.8162,3.8196,3.8274,3.8322,3.8356,3.8412,3.8458,3.8522,3.8551,3.8624,3.8663,3.8717,3.8736,3.8696,3.8854,3.8802,3.8867,3.8866,3.89,3.8898,3.9077,3.8926,3.8926,3.8925,3.8925,0,3.8076,3.8166,3.8206,3.827,3.837,3.8388,3.8486,3.8517,3.8567,3.8634,3.8631,3.8694,3.8716,3.8782,3.8796,3.8892,3.891,3.8922,3.8925,3.8923,3.8921,3.8948,3.8939,3.893,3.8929,3.8928,3.8927,0,3.8199,3.823,3.8343,3.8407,3.8425,3.8496,3.8549,3.8609,3.8634,3.872,3.8741,3.8779,3.8857,3.8881,3.8974,3.8983,3.9095,3.909,3.9075,3.9076,3.9138,3.9131,3.934,3.9368,3.9199,3.9201,3.9202,0,3.829,3.836,3.8431,3.8478,3.8514,3.8589,3.8636,3.8656,3.8705,3.8777,3.8828,3.8905,3.8967,3.9091,3.9125,3.9195,3.9192,3.926,3.9202,3.9197,3.9192,3.9187,3.9193,3.9271,3.9273,3.9274,3.9275,0,3.8448,3.8459,3.8529,3.8604,3.8661,3.8721,3.8778,3.8815,3.8843,3.8897,3.8978,3.9026,3.9121,3.9197,3.9268,3.93,3.9292,3.9293,3.9311,3.9309,3.9298,3.9304,3.9104,3.9288,3.9287,3.9286,3.9285,3.9285,3.8557,3.8618,3.8678,3.8755,3.88,3.8853,3.8913,3.8945,3.9013,3.9093,3.91,3.9186,3.924,3.9335,3.9371,3.9436,3.9416,3.9443,3.945,3.9456,3.9461,3.9288,3.9449,3.9449,3.9449,3.9448,3.9448,0,3.8713,3.8751,3.8823,3.8903,3.8963,3.8952,3.9014,3.9064,3.9141,3.9193,3.9255,3.9345,3.9418,3.9458,3.953,3.9575,3.9572,3.9593,3.9589,3.9596,3.9475,3.9452,3.9593,3.9593,3.9593,3.9593,3.9593,3.9593,3.8802,3.8904,3.8922,3.9044,3.9081,3.9167,3.9203,3.9251,3.9293,3.9395,3.9456,3.9482,3.9529,3.9604,3.9669,3.9678,3.9704,3.9727,3.9734,3.962,3.9605,3.9591,3.9569,3.9733,3.9733,3.985,3.9851,3.9851]}]]